Location: Huberhof
(49.2050°N, 7.4980°E)
Time: 01:28:59
(UTC+00:00)

GEOS 3 Rocket - Pass Details

Date: 29 October 2020
Orbit: 770 x 850 km, 115.0° (Epoch: 26 November)

Event Time Altitude Azimuth Distance (km) Brightness Sun altitude
Exits shadow 18:17:20 38° 117° (ESE) 1,250 4.1 -20.8°
Maximum altitude 18:19:23 71° 44° (NE) 889 3.6 -21.1°
Drops below altitude 10° 18:24:46 10° 322° (NW) 2,480 6.7 -22.0°
Sets 18:27:07 0° 320° (NW) 3,422 7.5 -22.3°
